Data,VUAN
2008-04-09,10.0000
2008-04-10,10.0000
2008-04-11,10.0000
2008-04-14,10.0000
2008-04-15,10.0100
2008-04-16,10.0100
2008-04-17,10.0000
2008-04-18,10.0100
2008-04-21,10.0100
2008-04-22,10.0100
2008-04-23,10.0200
2008-04-24,10.0200
2008-04-25,10.0200
2008-04-29,10.0200
2008-04-30,10.0300
2008-05-02,10.0300
2008-05-05,10.0500
2008-05-06,10.0600
2008-05-07,10.0500
2008-05-08,10.0700
2008-05-09,10.0800
2008-05-12,10.0800
2008-05-13,10.0400
2008-05-14,10.0400
2008-05-15,10.0100
2008-05-16,10.0000
2008-05-19,10.0400
2008-05-20,10.1200
2008-05-21,10.1300
2008-05-22,10.1300
2008-05-23,10.1200
2008-05-26,10.1100
2008-05-27,10.0800
2008-05-28,10.0800
2008-05-29,10.1000
2008-05-30,10.1400
2008-06-02,10.1400
2008-06-03,10.1900
2008-06-04,10.2000
2008-06-05,10.2100
2008-06-06,10.2100
2008-06-09,10.1800
2008-06-10,10.1800
2008-06-11,10.1800
2008-06-12,10.1400
2008-06-13,10.0800
2008-06-16,10.1000
2008-06-17,10.1000
2008-06-18,10.1000
2008-06-19,10.1100
2008-06-20,10.1500
2008-06-23,10.0800
2008-06-24,9.9900
2008-06-25,9.9900
2008-06-26,9.9500
2008-06-27,9.9000
2008-06-30,9.8800
2008-07-01,9.8600
2008-07-02,9.8600
2008-07-03,9.8000
2008-07-04,9.7400
2008-07-07,9.7500
2008-07-08,9.6700
2008-07-09,9.6700
2008-07-10,9.6600
2008-07-11,9.6600
2008-07-14,9.7100
2008-07-15,9.6200
2008-07-16,9.6200
2008-07-17,9.6100
2008-07-18,9.5000
2008-07-21,9.4100
2008-07-22,9.5000
2008-07-23,9.5000
2008-07-24,9.5300
2008-07-25,9.4700
2008-07-28,9.5200
2008-07-29,9.4900
2008-07-30,9.4800
2008-07-31,9.4700
2008-08-01,9.4900
2008-08-04,9.5700
2008-08-05,9.5300
2008-08-06,9.5300
2008-08-07,9.5400
2008-08-08,9.6000
2008-08-11,9.5800
2008-08-12,9.6700
2008-08-13,9.6800
2008-08-14,9.6900
2008-08-15,9.6200
2008-08-18,9.5600
2008-08-19,9.4900
2008-08-20,9.4900
2008-08-21,9.4500
2008-08-22,9.4300
2008-08-25,9.3700
2008-08-26,9.3600
2008-08-27,9.3600
2008-08-28,9.3300
2008-08-29,9.2900
2008-09-01,9.2800
2008-09-02,9.2900
2008-09-03,9.2900
2008-09-04,9.3400
2008-09-05,9.4300
2008-09-08,9.4000
2008-09-09,9.2500
2008-09-10,9.2600
2008-09-11,9.3600
2008-09-12,9.3400
2008-09-15,9.2700
2008-09-16,9.1800
2008-09-17,9.1700
2008-09-18,9.0600
2008-09-19,8.8600
2008-09-22,8.8300
2008-09-23,8.9600
2008-09-24,8.9600
2008-09-25,9.0000
2008-09-26,8.9300
2008-09-29,8.9300
2008-09-30,8.8700
2008-10-01,8.8600
2008-10-02,8.8100
2008-10-03,8.7200
2008-10-06,8.7600
2008-10-07,8.8100
2008-10-08,8.8000
2008-10-09,8.6300
2008-10-10,8.5100
2008-10-13,8.2700
2008-10-14,8.0000
2008-10-15,8.0100
2008-10-16,8.1800
2008-10-17,8.3900
2008-10-20,8.2500
2008-10-21,8.1600
2008-10-22,8.1600
2008-10-23,8.1400
2008-10-24,8.1000
2008-10-27,7.9800
2008-10-28,7.7500
2008-10-29,7.7500
2008-10-30,7.6200
2008-10-31,7.7100
2008-11-03,7.7800
2008-11-04,7.8000
2008-11-05,7.8000
2008-11-06,7.8600
2008-11-07,7.9900
2008-11-10,7.9500
2008-11-11,7.9800
2008-11-12,8.0400
2008-11-13,8.1700
2008-11-14,8.0800
2008-11-17,8.0600
2008-11-18,8.0400
2008-11-19,8.0400
2008-11-20,7.9900
2008-11-21,8.0100
2008-11-24,7.9700
2008-11-25,7.9400
2008-11-26,7.9400
2008-11-27,7.9900
2008-11-28,8.0500
2008-12-02,8.0300
2008-12-03,8.0300
2008-12-04,8.0300
2008-12-05,8.0100
2008-12-08,8.0200
2008-12-09,8.0000
2008-12-10,8.0000
2008-12-11,8.0300
2008-12-12,8.0200
2008-12-15,8.0100
2008-12-16,7.9400
2008-12-17,7.9400
2008-12-18,7.9200
2008-12-19,7.9200
2008-12-22,7.9100
2008-12-23,7.9100
2008-12-24,7.9100
2008-12-29,7.9200
2008-12-30,7.9500
2008-12-31,7.9500
2009-01-05,7.9600
2009-01-06,7.9600
2009-01-07,7.9500
2009-01-08,8.0000
2009-01-09,7.8900
2009-01-12,7.8400
2009-01-13,7.8600
2009-01-14,7.8600
2009-01-15,7.9100
2009-01-16,7.8800
2009-01-19,7.8600
2009-01-20,7.8600
2009-01-21,7.8600
2009-01-22,7.8200
2009-01-23,7.7400
2009-01-26,7.6700
2009-01-27,7.5700
2009-01-28,7.5700
2009-01-29,7.5900
2009-01-30,7.5800
2009-02-02,7.5400
2009-02-03,7.5200
2009-02-04,7.5200
2009-02-05,7.5300
2009-02-06,7.5300
2009-02-09,7.4900
2009-02-10,7.5400
2009-02-11,7.5400
2009-02-12,7.5400
2009-02-13,7.5300
2009-02-16,7.5500
2009-02-17,7.5100
2009-02-18,7.5100
2009-02-19,7.4500
2009-02-20,7.3600
2009-02-23,7.4000
2009-02-24,7.4000
2009-02-25,7.4100
2009-02-26,7.4000
2009-02-27,7.3600
2009-03-02,7.3600
2009-03-03,7.3600
2009-03-04,7.3700
2009-03-05,7.3800
2009-03-06,7.3900
2009-03-09,7.4300
2009-03-10,7.4500
2009-03-11,7.4500
2009-03-12,7.4400
2009-03-13,7.4600
2009-03-16,7.4600
2009-03-17,7.5200
2009-03-18,7.5200
2009-03-19,7.5500
2009-03-20,7.5700
2009-03-23,7.5800
2009-03-24,7.6500
2009-03-25,7.6500
2009-03-26,7.7200
2009-03-27,7.7300
2009-03-30,7.7600
2009-03-31,7.7500
2009-04-01,7.7400
2009-04-02,7.6900
2009-04-03,7.7600
2009-04-06,7.7400
2009-04-07,7.8300
2009-04-08,7.8300
2009-04-09,7.8700
2009-04-10,7.8500
2009-04-13,7.9100
2009-04-14,8.0200
2009-04-15,8.0500
2009-04-16,8.0800
2009-04-17,8.0400
2009-04-21,8.0300
2009-04-22,8.1000
2009-04-23,8.1000
2009-04-24,8.0400
2009-04-27,8.0900
2009-04-28,8.1300
2009-04-29,8.1400
2009-04-30,8.1800
2009-05-04,8.2900
2009-05-05,8.3500
2009-05-06,8.3700
2009-05-07,8.4700
2009-05-08,8.5000
2009-05-11,8.4600
2009-05-12,8.4000
2009-05-13,8.3400
2009-05-14,8.2200
2009-05-15,8.2400
2009-05-18,8.2900
2009-05-19,8.3600
2009-05-20,8.3900
2009-05-21,8.3300
2009-05-22,8.3400
2009-05-25,8.3500
2009-05-26,8.2900
2009-05-27,8.3100
2009-05-28,8.3500
2009-05-29,8.3800
2009-06-01,8.4700
2009-06-02,8.4900
2009-06-03,8.5100
2009-06-04,8.5100
2009-06-05,8.5500
2009-06-09,8.5400
2009-06-10,8.6000
2009-06-11,8.6300
2009-06-12,8.6400
2009-06-15,8.5800
2009-06-16,8.5200
2009-06-17,8.4400
2009-06-18,8.4500
2009-06-19,8.4900
2009-06-22,8.4600
2009-06-23,8.4500
2009-06-24,8.5100
2009-06-25,8.4700
2009-06-26,8.5000
2009-06-29,8.5000
2009-06-30,8.5200
2009-07-01,8.5100
2009-07-02,8.5200
2009-07-03,8.5200
2009-07-06,8.5000
2009-07-07,8.5000
2009-07-08,8.4800
2009-07-09,8.4900
2009-07-10,8.4700
2009-07-13,8.4600
2009-07-14,8.4700
2009-07-15,8.5100
2009-07-16,8.5300
2009-07-17,8.5300
2009-07-20,8.6000
2009-07-21,8.6500
2009-07-22,8.6300
2009-07-23,8.6500
2009-07-24,8.6800
2009-07-27,8.7200
2009-07-28,8.6900
2009-07-29,8.6900
2009-07-30,8.7800
2009-07-31,8.7900
2009-08-03,8.8600
2009-08-04,8.8400
2009-08-05,8.8600
2009-08-06,8.9500
2009-08-07,9.0000
2009-08-10,8.9900
2009-08-11,9.0000
2009-08-12,8.9700
2009-08-13,9.0200
2009-08-14,9.0100
2009-08-17,8.9100
2009-08-18,8.9100
2009-08-19,8.8500
2009-08-20,8.9800
2009-08-21,8.9800
2009-08-24,9.0600
2009-08-25,9.0800
2009-08-26,9.0700
2009-08-27,9.0800
2009-08-28,9.1100
2009-08-31,9.0500
2009-09-01,9.0300
2009-09-02,8.9400
2009-09-03,8.9700
2009-09-04,9.0200
2009-09-07,9.1200
2009-09-08,9.1400
2009-09-09,9.1600
2009-09-10,9.1400
2009-09-11,9.1500
2009-09-14,9.1300
2009-09-15,9.2100
2009-09-16,9.2100
2009-09-17,9.2000
2009-09-18,9.2100
2009-09-21,9.1900
2009-09-22,9.2700
2009-09-23,9.3100
2009-09-24,9.3200
2009-09-25,9.3000
2009-09-28,9.2800
2009-09-29,9.2800
2009-09-30,9.2900
2009-10-01,9.2400
2009-10-02,9.0900
2009-10-05,9.1300
2009-10-06,9.2400
2009-10-07,9.2300
2009-10-08,9.2400
2009-10-09,9.2300
2009-10-12,9.2200
2009-10-13,9.2300
2009-10-14,9.3300
2009-10-15,9.3200
2009-10-16,9.2700
2009-10-19,9.3200
2009-10-20,9.3400
2009-10-21,9.3100
2009-10-22,9.3000
2009-10-23,9.3300
2009-10-26,9.2800
2009-10-27,9.2000
2009-10-28,9.0800
2009-10-29,9.1400
2009-10-30,9.1300
2009-11-02,9.1100
2009-11-03,9.0500
2009-11-04,9.0800
2009-11-05,9.1300
2009-11-06,9.0700
2009-11-09,9.1400
2009-11-10,9.1500
2009-11-11,9.2400
2009-11-12,9.3200
2009-11-13,9.3200
2009-11-16,9.3100
2009-11-17,9.2800
2009-11-18,9.2900
2009-11-19,9.3000
2009-11-20,9.3200
2009-11-23,9.3800
2009-11-24,9.4000
2009-11-25,9.4100
2009-11-26,9.3400
2009-11-27,9.3300
2009-11-30,9.3400
2009-12-01,9.3400
2009-12-02,9.3900
2009-12-03,9.4300
2009-12-04,9.4500
2009-12-07,9.3300
2009-12-08,9.3200
2009-12-09,9.2800
2009-12-10,9.3100
2009-12-11,9.2900
2009-12-14,9.3200
2009-12-15,9.3600
2009-12-16,9.4200
2009-12-17,9.3700
2009-12-18,9.3800
2009-12-21,9.3400
2009-12-22,9.3100
2009-12-23,9.3300
2009-12-24,9.3200
2009-12-28,9.3300
2009-12-29,9.3300
2009-12-30,9.3300
2009-12-31,9.3300
2010-01-04,9.3600
2010-01-05,9.4400
2010-01-06,9.4500
2010-01-07,9.4800
2010-01-08,9.5300
2010-01-11,9.5900
2010-01-12,9.5700
2010-01-13,9.6500
2010-01-14,9.6500
2010-01-15,9.7000
2010-01-18,9.7200
2010-01-19,9.6900
2010-01-20,9.7200
2010-01-21,9.7000
2010-01-22,9.6300
2010-01-25,9.7100
2010-01-26,9.6300
2010-01-27,9.6600
2010-01-28,9.7400
2010-01-29,9.7300
2010-02-01,9.8000
2010-02-02,9.8200
2010-02-03,9.8200
2010-02-04,9.7900
2010-02-05,9.7000
2010-02-08,9.7200
2010-02-09,9.6600
2010-02-10,9.7300
2010-02-11,9.7200
2010-02-12,9.7400
2010-02-15,9.8000
2010-02-16,9.8300
2010-02-17,9.8300
2010-02-18,9.8400
2010-02-19,9.8800
2010-02-22,9.9500
2010-02-23,9.8900
2010-02-24,9.8900
2010-02-25,9.8500
2010-03-01,9.8596
2010-03-02,9.8933
2010-03-03,9.8920
2010-03-04,9.8900
2010-03-05,9.9400
2010-03-08,9.9500
2010-03-09,9.9400
2010-03-10,9.9500
2010-03-11,9.9600
2010-03-12,10.0400
2010-03-15,10.1000
2010-03-16,10.1600
2010-03-17,10.2500
2010-03-18,10.2700
2010-03-19,10.2300
2010-03-22,10.2400
2010-03-23,10.3300
2010-03-24,10.2700
2010-03-25,10.3100
2010-03-26,10.3400
2010-03-29,10.3300
2010-03-30,10.3500
2010-03-31,10.3300
2010-04-01,10.4500
2010-04-02,10.5100
2010-04-06,10.4200
2010-04-07,10.4800
2010-04-08,10.3800
2010-04-09,10.4400
2010-04-12,10.4300
2010-04-13,10.3900
2010-04-14,10.4300
2010-04-15,10.4600
2010-04-16,10.4400
2010-04-19,10.3500
2010-04-20,10.2900
2010-04-21,10.2700
2010-04-22,10.1700
2010-04-23,10.2700
2010-04-26,10.2500
2010-04-27,10.1900
2010-04-28,10.1300
2010-04-29,10.1300
2010-04-30,10.1300
2010-05-03,10.0800
2010-05-04,9.9200
2010-05-05,9.8000
2010-05-06,9.7600
2010-05-07,9.6000
2010-05-10,9.9600
2010-05-11,9.8300
2010-05-12,9.8800
2010-05-13,9.9700
2010-05-14,9.8900
2010-05-17,9.7100
2010-05-18,9.7700
2010-05-19,9.7400
2010-05-20,9.6900
2010-05-21,9.5800
2010-05-25,9.2600
2010-05-26,9.4700
2010-05-27,9.5600
2010-05-28,9.5600
2010-05-31,9.5400
2010-06-01,9.4800
2010-06-02,9.5100
2010-06-03,9.6000
2010-06-04,9.4900
2010-06-07,9.4400
2010-06-08,9.3400
2010-06-09,9.4000
2010-06-10,9.4300
2010-06-11,9.4100
2010-06-14,9.4500
2010-06-15,9.5700
2010-06-16,9.6600
2010-06-17,9.7400
2010-06-18,9.7200
2010-06-21,9.8100
2010-06-22,9.7600
2010-06-23,9.7600
2010-06-24,9.7300
2010-06-25,9.5600
2010-06-28,9.5200
2010-06-29,9.4100
2010-06-30,9.5000
2010-07-01,9.5000
2010-07-02,9.5900
2010-07-05,9.5300
2010-07-06,9.5400
2010-07-07,9.5000
2010-07-08,9.5100
2010-07-09,9.5200
2010-07-12,9.4500
2010-07-13,9.5100
2010-07-14,9.5000
2010-07-15,9.5300
2010-07-16,9.5300
2010-07-19,9.5200
2010-07-20,9.5000
2010-07-21,9.5300
2010-07-22,9.5500
2010-07-23,9.5700
2010-07-26,9.6300
2010-07-27,9.7400
2010-07-28,9.7000
2010-07-29,9.7400
2010-07-30,9.6700
2010-08-02,9.8100
2010-08-03,9.8200
2010-08-04,9.8300
2010-08-05,9.8300
2010-08-06,9.7600
2010-08-09,9.8000
2010-08-10,9.7500
2010-08-11,9.6800
2010-08-12,9.7000
2010-08-13,9.7200
2010-08-16,9.7800
2010-08-17,9.8300
2010-08-18,9.7900
2010-08-19,9.7800
2010-08-20,9.7700
2010-08-23,9.7700
2010-08-24,9.7000
2010-08-25,9.6800
2010-08-26,9.7000
2010-08-27,9.7400
2010-08-30,9.7000
2010-08-31,9.6700
2010-09-01,9.6700
2010-09-02,9.6900
2010-09-03,9.7000
2010-09-06,9.7500
2010-09-07,9.7000
2010-09-08,9.7000
2010-09-09,9.7500
2010-09-10,9.7400
2010-09-13,9.7400
2010-09-14,9.7700
2010-09-15,9.7700
2010-09-16,9.7900
2010-09-17,9.7700
2010-09-20,9.7400
2010-09-21,9.8000
2010-09-22,9.7800
2010-09-23,9.7800
2010-09-24,9.8000
2010-09-27,9.8300
2010-09-28,9.8400
2010-09-29,9.8600
2010-09-30,9.9200
2010-10-01,9.8900
2010-10-04,9.8600
2010-10-05,9.8600
2010-10-06,9.9000
2010-10-07,9.9000
2010-10-08,9.9100
2010-10-11,9.9200
2010-10-12,10.0900
2010-10-13,10.1200
2010-10-14,10.1400
2010-10-15,10.1600
2010-10-18,10.1600
2010-10-19,10.1700
2010-10-20,10.1600
2010-10-21,10.1600
2010-10-22,10.1300
2010-10-25,10.1100
2010-10-26,10.0800
2010-10-27,10.1100
2010-10-28,10.1200
2010-10-29,10.1200
2010-11-01,10.1100
2010-11-02,10.1000
2010-11-03,10.1000
2010-11-04,10.1000
2010-11-05,10.1100
2010-11-08,10.0200
2010-11-09,10.0400
2010-11-10,9.9700
2010-11-11,9.9600
2010-11-12,9.9600
2010-11-15,9.9900
2010-11-16,9.9900
2010-11-17,10.0000
2010-11-18,10.0100
2010-11-19,9.9800
2010-11-22,9.9500
2010-11-23,9.9400
2010-11-24,9.9400
2010-11-25,9.9100
2010-11-26,9.8900
2010-11-29,9.9000
2010-11-30,9.8900
2010-12-02,9.9400
2010-12-03,9.9400
2010-12-06,9.9000
2010-12-07,9.9300
2010-12-08,9.9400
2010-12-09,9.9300
2010-12-10,9.9400
2010-12-13,9.9200
2010-12-14,9.9300
2010-12-15,9.9200
2010-12-16,9.9100
2010-12-17,9.9200
2010-12-20,9.8900
2010-12-21,9.9100
2010-12-22,9.9200
2010-12-23,9.9500
2010-12-24,9.9600
2010-12-27,9.9400
2010-12-28,9.9600
2010-12-29,9.9900
2010-12-30,10.0300
2010-12-31,10.0400
2011-01-03,10.0800
2011-01-04,10.1000
2011-01-05,10.0800
2011-01-06,10.1400
2011-01-07,10.1400
2011-01-10,10.1500
2011-01-11,10.2000
2011-01-12,10.2400
2011-01-13,10.2400
2011-01-14,10.2300
2011-01-17,10.2600
2011-01-18,10.2800
2011-01-19,10.3000
2011-01-20,10.2800
2011-01-21,10.2500
2011-01-24,10.2600
2011-01-25,11.0900
2011-01-26,11.0400
2011-01-27,10.9700
2011-01-28,10.9100
2011-01-31,10.8600
2011-02-01,10.9100
2011-02-02,10.9400
2011-02-03,10.9100
2011-02-04,10.9100
2011-02-07,10.9200
2011-02-08,10.9500
2011-02-09,10.9400
2011-02-10,10.9000
2011-02-11,10.8600
2011-02-14,10.8300
2011-02-15,10.8100
2011-02-16,10.7600
2011-02-17,10.7500
2011-02-18,10.8000
2011-02-21,10.7900
2011-02-22,10.7600
2011-02-23,10.8000
2011-02-24,10.7600
2011-02-25,10.8200
2011-02-28,10.9500
2011-03-01,10.9100
2011-03-02,10.9000
2011-03-03,10.9600
2011-03-04,10.9600
2011-03-07,10.9600
2011-03-08,10.9500
2011-03-09,10.9600
2011-03-10,10.9800
2011-03-11,10.9400
2011-03-14,10.9400
2011-03-15,10.8400
2011-03-16,10.9000
2011-03-17,10.9300
2011-03-18,10.9000
2011-03-21,10.9600
2011-03-22,10.9900
2011-03-23,10.9900
2011-03-24,11.0000
2011-03-25,11.0600
2011-03-28,11.0700
2011-03-29,11.0700
2011-03-30,11.0800
2011-03-31,11.0600
2011-04-01,11.0800
2011-04-04,11.0500
2011-04-05,11.0300
2011-04-06,11.0500
2011-04-07,11.0600
2011-04-08,11.0700
2011-04-11,11.0600
2011-04-12,11.0700
2011-04-13,11.0700
2011-04-14,11.0600
2011-04-15,11.0600
2011-04-18,11.0500
2011-04-19,11.0300
2011-04-20,11.0200
2011-04-21,11.0200
2011-04-22,11.0100
2011-04-26,11.0300
2011-04-27,11.0200
2011-04-28,11.0300
2011-04-29,11.0300
2011-05-02,11.0300
2011-05-03,11.0200
2011-05-04,11.0200
2011-05-05,11.0300
2011-05-06,11.0300
2011-05-09,11.0300
2011-05-10,11.0300
2011-05-11,11.0300
2011-05-12,11.0400
2011-05-13,11.0400
2011-05-16,11.0400
2011-05-17,11.0400
2011-05-18,11.0400
2011-05-19,11.0300
2011-05-20,11.0300
2011-05-23,11.0300
2011-05-24,11.0300
2011-05-25,11.0300
2011-05-26,11.0300
2011-05-27,11.1100
2011-05-30,11.1100
2011-05-31,11.1100
2011-06-01,11.1100
2011-06-02,11.1100
2011-06-03,11.1100
2011-06-06,11.1100
2011-06-07,11.0800
2011-06-08,11.0800
2011-06-09,11.0800
2011-06-10,11.0800
2011-06-14,11.0800
2011-06-15,11.0800
2011-06-16,11.0800
2011-06-17,11.1200
2011-06-20,11.1200
2011-06-21,11.1200
2011-06-22,11.1200
2011-06-23,11.1200
2011-06-24,11.1300
2011-06-27,11.1300
2011-06-28,11.1300
2011-06-29,11.1300
2011-06-30,11.1300
2011-07-01,11.1300
2011-07-04,11.1400
2011-07-05,11.1400
2011-07-06,11.1400
2011-07-07,11.1400
2011-07-08,11.1500
2011-07-11,11.1500
2011-07-12,11.1500
2011-07-13,11.1500
2011-07-14,11.1500
2011-07-15,11.1500
2011-07-18,11.1600
2011-07-19,11.1600
2011-07-20,11.1600
2011-07-21,11.1600
2011-07-22,11.1600
2011-07-25,11.1700
2011-07-26,11.1700
2011-07-27,11.1700
2011-07-28,11.1700
2011-07-29,11.1700
2011-08-01,11.1800
2011-08-02,11.1800
2011-08-03,11.1800
2011-08-04,11.1800
2011-08-05,11.1800
2011-08-08,11.1900
2011-08-09,11.1900
2011-08-10,11.1900
2011-08-11,11.1900
2011-08-12,11.1900
2011-08-16,11.2000
2011-08-17,11.2000
2011-08-18,11.2000
2011-08-19,11.2000
2011-08-22,11.2100
2011-08-23,11.2100
2011-08-24,11.2100
2011-08-25,11.2100
2011-08-26,11.2200
2011-08-29,11.2200
2011-08-30,11.2200
2011-08-31,11.2200
2011-09-01,11.2300
2011-09-02,11.2300
2011-09-05,11.2300
2011-09-06,11.2400
2011-09-07,11.2400
2011-09-08,11.2400
2011-09-09,11.2400
2011-09-12,11.2500
2011-09-13,11.2500
2011-09-14,11.2500
2011-09-15,11.2500
2011-09-16,11.2500
2011-09-19,11.2600
2011-09-20,11.2600
2011-09-21,11.2600
2011-09-22,11.2600
2011-09-23,11.2700
2011-09-26,11.2700
2011-09-27,11.2700
2011-09-28,11.2700
2011-09-29,11.2800
2011-09-30,11.2800
2011-10-03,11.2800
2011-10-04,11.2800
2011-10-05,11.2900
2011-10-06,11.2900
2011-10-07,11.2900
2011-10-10,11.2900
2011-10-11,11.2900
2011-10-12,11.2900
2011-10-13,11.3000
2011-10-14,11.3000
2011-10-17,11.3000
2011-10-18,11.3000
2011-10-19,11.3100
2011-10-20,11.3100
2011-10-21,11.3100
2011-10-24,11.3200
2011-10-25,11.3200
2011-10-26,11.3200
2011-10-27,11.3400
2011-10-28,11.3400
2011-10-31,11.3400
2011-11-01,11.3400
2011-11-02,11.3500
2011-11-03,11.3500
2011-11-04,11.3500
2011-11-07,11.3600
2011-11-08,11.3600
2011-11-09,11.3600
2011-11-10,11.3600
2011-11-11,11.3700
2011-11-14,11.3700
2011-11-15,11.3700
2011-11-16,11.3700
2011-11-17,11.3700
2011-11-18,11.3700
2011-11-21,11.3800
2011-11-22,11.3800
2011-11-23,11.3800
2011-11-24,11.3900
2011-11-25,11.3900
2011-11-28,11.4000
2011-11-29,11.4000
2011-11-30,11.4000
2011-12-02,11.4000
2011-12-05,11.4100
2011-12-06,11.4100
2011-12-07,11.4100
2011-12-08,11.4200
2011-12-09,11.4200
2011-12-12,11.4200
2011-12-13,11.4300
2011-12-14,11.4300
2011-12-15,11.4300
2011-12-16,11.4300
2011-12-19,11.4400
2011-12-20,11.4400
2011-12-21,11.4400
2011-12-22,11.4500
2011-12-23,11.4500
2011-12-27,11.4600
2011-12-28,11.4500
2011-12-29,11.4600
2011-12-30,11.4600
2012-01-03,11.4700
2012-01-04,11.4700
2012-01-05,11.4700
2012-01-06,11.4800
2012-01-09,11.4900
2012-01-10,11.4900
2012-01-11,11.4900
2012-01-12,11.4900
2012-01-13,11.5000
2012-01-16,11.5000
2012-01-17,11.5000
2012-01-18,11.5000
2012-01-19,11.5100
2012-01-20,11.5100
2012-01-23,11.5100
2012-01-24,11.5100
2012-01-25,11.5200
2012-01-26,11.5200
2012-01-27,11.5200
2012-01-30,11.5300
2012-01-31,11.5300
2012-02-01,11.5300
2012-02-02,11.5300
2012-02-03,11.5300
2012-02-06,11.5400
2012-02-07,11.5400
2012-02-08,11.5400
2012-02-09,11.5500
2012-02-10,11.5500
2012-02-13,11.5500
2012-02-14,11.5600
2012-02-15,11.5600
2012-02-16,11.5600
2012-02-17,11.5600
2012-02-20,11.5700
2012-02-21,11.5700
2012-02-22,11.5700
2012-02-23,11.5700
2012-02-24,11.5800
2012-02-27,11.5800
2012-02-28,11.5800
2012-02-29,11.5800
2012-03-01,11.5900
2012-03-02,11.5900
2012-03-05,11.5900
2012-03-06,11.6000
2012-03-07,11.6000
2012-03-08,11.6000
2012-03-09,11.6000
2012-03-12,11.6100
2012-03-13,11.6100
2012-03-14,11.6100
2012-03-15,11.6100
2012-03-16,11.6200
2012-03-19,11.6200
2012-03-20,11.6300
2012-03-21,11.6400
2012-03-22,11.6400
2012-03-23,11.6400
2012-03-26,11.6400
2012-03-27,11.6400
2012-03-28,11.6400
2012-03-29,11.6400
2012-03-30,11.6500
2012-04-02,11.6500
2012-04-03,11.6500
2012-04-04,11.6600
2012-04-05,11.6600
2012-04-06,11.6600
2012-04-09,11.6700
2012-04-10,11.6600
2012-04-11,11.6700
2012-04-12,11.6700
2012-04-13,11.6700
2012-04-17,11.6800
2012-04-18,11.6800
2012-04-19,11.6800
2012-04-20,11.6800
2012-04-23,11.6900
2012-04-24,11.6908
2012-04-25,11.6931
2012-04-26,11.6951
2012-04-27,11.6967
2012-04-30,11.7020
2012-05-02,11.7057
2012-05-03,11.7077
2012-05-04,11.7099
2012-05-07,11.7161
2012-05-08,11.7184
2012-05-09,11.7207
2012-05-10,11.7227
2012-05-11,11.7249
2012-05-14,11.7310
2012-05-15,11.7330
2012-05-16,11.7337
2012-05-17,11.7344
2012-05-18,11.7351
2012-05-21,11.7411
2012-05-22,11.7432
2012-05-23,11.7452
2012-05-24,11.7471
2012-05-25,11.7490
2012-05-28,11.7544
2012-05-29,11.7564
2012-05-30,11.7582
2012-05-31,11.7596
2012-06-01,11.7614
2012-06-05,11.7685
2012-06-06,11.7705
2012-06-07,11.7724
2012-06-08,11.7742
2012-06-11,11.7796
2012-06-12,11.7815
2012-06-13,11.7833
2012-06-14,11.7850
2012-06-15,11.7868
2012-06-18,11.7918
2012-06-19,11.7953
2012-06-20,11.7968
2012-06-21,11.7979
2012-06-22,11.7999
2012-06-25,11.8062
2012-06-26,11.8081
2012-06-27,11.8108
2012-06-28,11.8127
2012-06-29,11.8145
2012-07-02,11.8192
2012-07-03,11.8211
2012-07-04,11.8236
2012-07-05,11.8259
2012-07-06,11.8277
2012-07-09,11.8342
2012-07-10,11.8371
2012-07-11,11.8395
2012-07-12,11.8421
2012-07-13,11.8443
2012-07-16,11.8499
2012-07-17,11.8527
2012-07-18,11.8575
2012-07-19,11.8595
2012-07-20,11.8641
2012-07-23,11.8694
2012-07-24,11.8726
2012-07-25,11.8743
2012-07-26,11.8769
2012-07-27,11.8787
2012-07-30,11.8835
2012-07-31,11.8860
2012-08-01,11.8884
2012-08-02,11.8907
2012-08-03,11.8935
2012-08-06,11.8977
2012-08-07,11.8981
2012-08-08,11.9002
2012-08-09,11.9019
2012-08-10,11.9041
2012-08-13,11.9099
2012-08-14,11.9111
2012-08-16,11.9155
2012-08-17,11.9190
2012-08-20,11.9249
2012-08-21,11.9274
2012-08-22,11.9297
2012-08-23,11.9314
2012-08-24,11.9339
2012-08-27,11.9407
2012-08-28,11.9434
2012-08-29,11.9455
2012-08-30,11.9481
2012-08-31,11.9497
2012-09-03,11.9561
2012-09-04,11.9647
2012-09-05,11.9668
2012-09-06,11.9867
2012-09-07,11.9875
2012-09-10,11.9935
2012-09-11,11.9960
2012-09-12,11.9982
2012-09-13,12.0009
2012-09-14,12.0029
2012-09-17,12.0088
2012-09-18,12.0333
2012-09-19,12.0357
2012-09-20,12.0375
2012-09-21,12.0394
2012-09-24,12.0458
2012-09-25,12.0482
2012-09-26,12.0477
2012-09-27,12.0497
2012-09-28,12.0520
2012-10-01,12.0572
2012-10-02,12.0597
2012-10-03,12.0617
2012-10-04,12.0641
2012-10-05,12.0652
2012-10-08,12.0715
2012-10-09,12.0736
2012-10-10,12.0747
2012-10-11,12.0766
2012-10-12,12.0782
2012-10-15,12.0841
2012-10-16,12.0862
2012-10-17,12.0886
2012-10-18,12.1102
2012-10-19,12.1125
2012-10-22,12.1181
2012-10-23,12.1203
2012-10-24,12.1225
2012-10-25,12.1246
2012-10-26,12.1312
2012-10-29,12.1369
2012-10-30,12.1393
2012-10-31,12.1409
2012-11-01,12.1432
2012-11-02,12.1443
2012-11-05,12.1504
2012-11-06,12.1528
2012-11-07,12.1544
2012-11-08,12.1569
2012-11-09,12.1590
2012-11-12,12.1654
2012-11-13,12.1675
2012-11-14,12.1695
2012-11-15,12.1719
2012-11-16,12.1735
2012-11-19,12.1799
2012-11-20,12.1824
2012-11-21,12.1848
2012-11-22,12.1862
2012-11-23,12.2094
2012-11-26,12.2157
2012-11-27,12.2172
2012-11-28,12.2190
2012-11-29,12.2207
2012-11-30,12.2224
2012-12-03,12.2291
2012-12-04,12.2315
2012-12-05,12.2346
2012-12-06,12.2367
2012-12-07,12.2388
2012-12-10,12.2450
2012-12-11,12.2476
2012-12-12,12.2498
2012-12-13,12.2577
2012-12-14,12.2590
2012-12-17,12.2643
2012-12-18,12.2664
2012-12-19,12.2884
2012-12-20,12.2906
2012-12-21,12.2912
2012-12-24,12.2972
2012-12-27,12.3002
2012-12-28,12.3257
2012-12-31,12.3312
2013-01-03,12.3376
2013-01-04,12.3407
2013-01-07,12.3472
2013-01-08,12.3496
2013-01-09,12.3516
2013-01-10,12.3528
2013-01-11,12.3549
2013-01-14,12.3605
2013-01-15,12.3627
2013-01-16,12.3643
2013-01-17,12.3666
2013-01-18,12.3690
2013-01-21,12.3767
2013-01-22,12.3792
2013-01-23,12.3814
2013-01-24,12.3833
2013-01-25,12.3852
2013-01-28,12.3907
2013-01-29,12.3935
2013-01-30,12.3983
2013-01-31,12.3996
2013-02-01,12.4014